Location: *
(53.4003°S, 165.3236°W)
Time: 01:48:55
(UTC+00:00)

Cosmos 2100 Rocket - Pass Details

Date: 11 December 2023
Orbit: 954 x 1001 km, 82.9° (Epoch: 24 February)

Event Time Altitude Azimuth Distance (km) Brightness Sun altitude
Rises 12:21:32 0° 194° (SSW) 3,679 8.0 -11.3°
Reaches altitude 10° 12:24:05 10° 198° (SSW) 2,729 7.2 -11.2°
Maximum altitude 12:30:07 53° 272° (W) 1,186 4.3 -10.8°
Enters shadow 12:35:32 13° 345° (NNW) 2,506 5.5 -10.5°
